User: anonymous   Login
Location: Unspecified
(0.0000°N, 0.0000°E)
Time: 09:32:08
(UTC+00:00)
Language:

Nova 2 - Orbit

View from above orbital plane
View from above orbital plane
View from above satellite
View from above satellite

Ground track
Ground track

The orbit data is extracted from the following two-line orbital elements,

1 19223U 88052A   18023.73033042 +.00000008 +00000-0 -18902-5 0  9990
2 19223 089.9629 086.2022 0031397 032.9176 083.7647 13.22663384428741
Epoch (UTC): 23 January 2018 17:31:40
Eccentricity: 0.0031397
inclination: 89.9629°
perigee height: 1151 km
apogee height: 1198 km
right ascension of ascending node: 86.2022°
argument of perigee: 32.9176°
revolutions per day: 13.22663384
mean anomaly at epoch: 83.7647°
orbit number at epoch: 42874

The dashed part of the orbit path shows where the satellite is in the earth's shadow,  

DLR